Location: Boiro
(42.6475°N, 8.8834°W)
Time: 00:14:29
(UTC+01:00)

Vanguard 2 Rocket - Pass Details

Date: 18 December 2021
Orbit: 553 x 3325 km, 32.9° (Epoch: 26 January)

Event Time Altitude Azimuth Distance (km) Brightness Sun altitude
Rises 20:14:28 0° 252° (WSW) 2,920 11.0 -23.1°
Reaches altitude 10° 20:18:01 10° 219° (SW) 2,283 9.6 -23.7°
Maximum altitude 20:20:03 12° 196° (SSW) 2,322 9.3 -24.1°
Drops below altitude 10° 20:22:23 10° 174° (S) 2,717 9.4 -24.5°
Enters shadow 20:27:42 - 147° (SSE) 4,274 10.1 -25.5°
